Regional Weather Roundup
Issued by NWS Cleveland, OH

Home | Current Version | Previous Version | Graphics & Text | Print | Product List | Glossary On
Versions: 1 2 3 4 5 6 7 8 9 10 11 12 13 14 15 16 17 18 19 20 21 22 23 24 25 26 27 28 29 30 31 32 33 34 35 36 37 38 39 40 41 42 43 44 45 46 47 48 49 50
000
ASUS41 KCLE 271810
RWRCLE
OHIO REGIONAL WEATHER ROUNDUP
NATIONAL WEATHER SERVICE CLEVELAND, OH
200 PM EDT MON APR 27 2015

NOTE: "FAIR" INDICATES FEW OR NO CLOUDS BELOW 12,000 FEET WITH NO
SIGNIFICANT WEATHER AND/OR OBSTRUCTIONS TO VISIBILITY.

OHZ001>008-015>018-024>027-034-035-043-044-271900-
   NORTHWEST OHIO

CITY           SKY/WX    TMP DP  RH WIND       PRES   REMARKS
DEFIANCE       CLOUDY    51  35  54 N15       30.03R
FINDLAY        CLOUDY    52  37  56 N15       30.00S
TOLEDO EXPRESS CLOUDY    48  36  61 N10       30.03S
TOLEDO EXEC    CLOUDY    47  34  60 NW10      30.04R
LIMA           CLOUDY    51  37  58 N14       30.00S
$$

OHZ009>014-019>023-028>033-038-089-271900-
   NORTHEAST OHIO

CITY           SKY/WX    TMP DP  RH WIND       PRES   REMARKS
CLE-HOPKINS    CLOUDY    43  36  76 NW18G24   30.03R
CLE-LAKEFRONT  CLOUDY    43  37  79 NW15      29.99R
CUY CO. ARPT   CLOUDY    43  37  81 NW13      29.99R
LORAIN-ELYRIA  CLOUDY    42  36  79 N13       30.01R
ASHTABULA      CLOUDY    40  36  86 NW8       29.96R FOG
AKRON-CANTON   CLOUDY    43  34  70 N15       29.96R
WOOSTER        CLOUDY    43  36  76 N15G24    29.98R
MANSFIELD      CLOUDY    42  36  79 N12       29.99R
YOUNGSTOWN     LGT RAIN  41  36  82 NW16      29.94R
$$

OHZ042-051>053-060>062-070>072-077>081-271900-
  SOUTHWEST OHIO

CITY           SKY/WX    TMP DP  RH WIND       PRES   REMARKS
CINC-COVINGTON MOSUNNY   61  36  39 N13       29.97F
CINC-LUNKEN    SUNNY     61  39  44 VRB7G20   29.97F
HAMILTON       SUNNY     61  38  42 NW12      29.98F
DAYTON         PTSUNNY   59  37  44 N14       29.98F
WRIGHT-PAT AFB PTSUNNY   56  34  44 NW10      29.97F
DAYTON GENERAL MOSUNNY   59  36  42 NW9       29.97S
WILMINGTON     MOSUNNY   58  34  40 N9G18     29.97S
$$

OHZ036-037-039>041-045>050-054>059-063>069-073>076-082>088-271900-
  CENTRAL AND SOUTHEAST OHIO

CITY           SKY/WX    TMP DP  RH WIND       PRES   REMARKS
COLUMBUS       CLOUDY    54  37  52 N16       29.97S
OSU AIRPORT    CLOUDY    53  35  50 NW12G21   29.97S
BOLTON FIELD   CLOUDY    54  37  54 N13G20    29.98R
RICKENBACK AFB CLOUDY    53  34  49 N12       29.97S
NEWARK         CLOUDY    55  36  48 NW20      29.96S
MARION         CLOUDY    49  35  58 N16       29.99S
LANCASTER      CLOUDY    54  35  48 NW8       29.97S
ZANESVILLE     CLOUDY    50  35  56 NW15      29.95F
NEW PHILLY     CLOUDY    48  35  60 N14       29.96S
$$


USA.gov is the U.S. government's official web portal to all federal, state and local government web resources and services.